{"data":{"norad_id":57220,"epoch":"2026-09-20T04:52:20.784576Z","epoch_age_seconds":146580,"freshness":"FRESH","line1":"1 57220U 23094C   26263.20301834  .00000048  00000+0  11271-4 0  9991","line2":"2 57220  43.0043  15.6372 0001359 266.4668  93.6029 15.27574137176827","mean_motion":15.27574137,"eccentricity":0.0001359,"inclination_deg":43.0043,"raan_deg":15.6372,"arg_perigee_deg":266.4668,"mean_anomaly_deg":93.6029,"bstar":1.1271e-5,"rev_number":17682,"period_min":94.267110519952,"perigee_km":482.1342144507,"apogee_km":483.99908960332,"semimajor_km":6861.203652027,"source":"CELESTRAK","updated_at":"2026-09-21T09:00:33.584220Z"}}